Location: Belvedere Heights
(33.9836°N, 117.3109°W)
Time: 08:04:44
(UTC+00:00)

USA 234 - Pass Details

Date: 21 March 2023
Orbit: 1098 x 1109 km, 123.0° (Epoch: 20 May)

Event Time Altitude Azimuth Distance (km) Brightness Sun altitude
Rises 12:52:01 0° 38° (NE) 3,935 7.0 -13.2°
Reaches altitude 10° 12:54:32 10° 35° (NE) 2,975 6.2 -12.6°
Maximum altitude 13:00:57 59° 318° (NW) 1,266 3.4 -11.3°
Drops below altitude 10° 13:07:21 10° 241° (WSW) 2,961 4.9 -10.0°
Enters shadow 13:07:31 - 241° (WSW) 3,025 5.0 -10.0°
